Location: Brad
(46.1333°N, 22.7833°E)
Time: 10:40:24
(UTC+00:00)

Cosmos 2058 Rocket - Pass Details

Date: 03 February 2023
Orbit: 610 x 637 km, 82.5° (Epoch: 31 March)

Event Time Altitude Azimuth Distance (km) Brightness Sun altitude
Rises 16:23:26 0° 3° (N) 2,898 6.3 -8.5°
Reaches altitude 10° 16:26:05 10° 18° (NNE) 1,992 5.4 -9.0°
Maximum altitude 16:29:34 22° 70° (ENE) 1,351 4.2 -9.6°
Drops below altitude 10° 16:33:03 10° 123° (ESE) 1,993 5.3 -10.2°
Sets 16:35:41 0° 138° (SE) 2,900 6.2 -10.6°
